Time,TemperatureF,DewpointF,PressureIn,WindDirection,WindDirectionDegrees,WindSpeedMPH,WindSpeedGustMPH,Humidity,HourlyPrecipIn,Conditions,Clouds,dailyrainin,SoftwareType,DateUTC
2013-03-29 00:00:00,57.3,42.2,30.22,North,5,1.2,1.2,57,0.00,CLR,OVC,0.00,WeatherDisplay:10.37,2013-03-29 04:00:00,
2013-03-29 00:05:00,57.2,41.6,30.22,North,5,4.6,4.6,56,0.00,,OVC,0.00,WeatherDisplay:10.37,2013-03-29 04:05:00,
2013-03-29 00:10:00,57.2,41.6,30.22,North,360,4.6,4.6,56,0.00,,OVC,0.00,WeatherDisplay:10.37,2013-03-29 04:10:00,
2013-03-29 00:15:00,57.2,41.6,30.22,North,360,0.0,0.0,56,0.00,,OVC,0.00,WeatherDisplay:10.37,2013-03-29 04:15:00,
2013-03-29 00:20:00,57.2,41.6,30.22,North,360,0.0,0.0,56,0.00,,OVC,0.00,WeatherDisplay:10.37,2013-03-29 04:20:00,
2013-03-29 00:25:00,57.0,41.9,30.22,North,360,0.0,0.0,57,0.00,,OVC,0.00,WeatherDisplay:10.37,2013-03-29 04:25:00,
2013-03-29 00:30:00,56.7,42.1,30.22,North,360,0.0,0.0,58,0.00,,OVC,0.00,WeatherDisplay:10.37,2013-03-29 04:30:00,
2013-03-29 00:35:00,56.6,42.4,30.22,North,360,3.5,3.5,59,0.00,,OVC,0.00,WeatherDisplay:10.37,2013-03-29 04:35:00,
2013-03-29 00:40:00,56.5,42.8,30.22,North,360,0.0,0.0,60,0.00,,OVC,0.00,WeatherDisplay:10.37,2013-03-29 04:40:00,
2013-03-29 00:45:00,56.3,42.6,30.21,North,360,1.2,1.2,60,0.00,,OVC,0.00,WeatherDisplay:10.37,2013-03-29 04:45:00,
2013-03-29 00:50:00,56.3,42.6,30.21,NNW,348,3.0,3.0,60,0.00,,OVC,0.00,WeatherDisplay:10.37,2013-03-29 04:50:00,
2013-03-29 00:55:00,56.2,42.5,30.21,North,355,4.6,4.6,60,0.00,,OVC,0.00,WeatherDisplay:10.37,2013-03-29 04:55:00,
2013-03-29 01:00:00,56.3,43.0,30.21,North,355,4.6,4.6,61,0.00,,OVC,0.00,WeatherDisplay:10.37,2013-03-29 05:00:00,
2013-03-29 01:05:00,56.3,43.0,30.21,North,355,4.0,4.0,61,0.00,,OVC,0.00,WeatherDisplay:10.37,2013-03-29 05:05:00,
2013-03-29 01:10:00,56.3,43.0,30.21,North,355,0.0,0.0,61,0.00,,OVC,0.00,WeatherDisplay:10.37,2013-03-29 05:10:00,
2013-03-29 01:15:00,56.3,43.4,30.21,North,355,0.0,0.0,62,0.00,,OVC,0.00,WeatherDisplay:10.37,2013-03-29 05:15:00,
2013-03-29 01:20:00,56.3,43.4,30.21,North,355,0.0,0.2,62,0.00,,OVC,0.00,WeatherDisplay:10.37,2013-03-29 05:20:00,
2013-03-29 01:25:00,56.3,43.4,30.21,North,355,1.2,1.2,62,0.00,,OVC,0.00,WeatherDisplay:10.37,2013-03-29 05:25:00,
2013-03-29 01:30:00,56.2,43.8,30.21,North,355,0.0,0.0,63,0.00,,OVC,0.00,WeatherDisplay:10.37,2013-03-29 05:30:00,
2013-03-29 01:35:00,56.2,43.8,30.21,North,355,0.0,0.0,63,0.00,,OVC,0.00,WeatherDisplay:10.37,2013-03-29 05:35:00,
2013-03-29 01:41:00,56.0,43.6,30.21,North,355,0.0,0.0,63,0.00,,OVC,0.00,WeatherDisplay:10.37,2013-03-29 05:41:00,
2013-03-29 01:46:00,55.9,43.5,30.21,North,355,0.0,0.0,63,0.00,,OVC,0.00,WeatherDisplay:10.37,2013-03-29 05:46:00,
2013-03-29 01:51:00,55.7,43.7,30.21,North,355,0.0,0.0,64,0.00,,OVC,0.00,WeatherDisplay:10.37,2013-03-29 05:51:00,
2013-03-29 01:56:00,55.6,43.6,30.21,North,355,0.0,0.0,64,0.00,,OVC,0.00,WeatherDisplay:10.37,2013-03-29 05:56:00,
2013-03-29 02:01:00,55.4,43.4,30.21,North,355,0.0,0.0,64,0.00,,OVC,0.00,WeatherDisplay:10.37,2013-03-29 06:01:00,
2013-03-29 02:06:00,55.4,43.8,30.21,North,355,0.0,0.0,65,0.00,,OVC,0.00,WeatherDisplay:10.37,2013-03-29 06:06:00,
2013-03-29 02:11:00,55.4,43.8,30.21,North,355,0.0,0.0,65,0.00,,OVC,0.00,WeatherDisplay:10.37,2013-03-29 06:11:00,
2013-03-29 02:16:00,55.4,43.8,30.20,North,355,0.0,0.0,65,0.00,,OVC,0.00,WeatherDisplay:10.37,2013-03-29 06:16:00,
2013-03-29 02:21:00,55.4,43.8,30.20,North,355,0.0,0.0,65,0.00,,OVC,0.00,WeatherDisplay:10.37,2013-03-29 06:21:00,
2013-03-29 02:26:00,55.4,43.8,30.20,North,355,0.0,0.0,65,0.00,,OVC,0.00,WeatherDisplay:10.37,2013-03-29 06:26:00,
2013-03-29 02:31:00,55.3,43.7,30.20,North,355,0.0,0.0,65,0.00,,OVC,0.00,WeatherDisplay:10.37,2013-03-29 06:31:00,
2013-03-29 02:36:00,55.3,43.7,30.20,North,355,1.2,1.2,65,0.00,,OVC,0.00,WeatherDisplay:10.37,2013-03-29 06:36:00,
2013-03-29 02:41:00,55.6,43.6,30.20,North,355,0.0,0.0,64,0.00,,OVC,0.00,WeatherDisplay:10.37,2013-03-29 06:41:00,
2013-03-29 02:46:00,55.7,43.7,30.19,North,355,3.5,3.5,64,0.00,,OVC,0.00,WeatherDisplay:10.37,2013-03-29 06:46:00,
2013-03-29 02:51:00,55.9,43.5,30.19,North,355,5.8,0.0,63,0.00,,OVC,0.00,WeatherDisplay:10.37,2013-03-29 06:51:00,
2013-03-29 02:56:00,56.0,43.6,30.19,North,350,0.0,0.0,63,0.00,,OVC,0.00,WeatherDisplay:10.37,2013-03-29 06:56:00,
2013-03-29 03:01:00,56.0,43.6,30.19,North,349,4.6,4.6,63,0.00,,OVC,0.00,WeatherDisplay:10.37,2013-03-29 07:01:00,
2013-03-29 03:06:00,56.0,43.6,30.19,NNW,344,8.0,8.0,63,0.00,,OVC,0.00,WeatherDisplay:10.37,2013-03-29 07:06:00,
2013-03-29 03:12:00,56.2,43.8,30.19,NNW,343,0.0,0.0,63,0.00,,OVC,0.00,WeatherDisplay:10.37,2013-03-29 07:12:00,
2013-03-29 03:17:00,56.2,43.8,30.19,NNW,342,0.0,0.0,63,0.00,,OVC,0.00,WeatherDisplay:10.37,2013-03-29 07:17:00,
2013-03-29 03:22:00,56.2,43.8,30.19,NNW,342,0.0,0.0,63,0.00,,OVC,0.00,WeatherDisplay:10.37,2013-03-29 07:22:00,
2013-03-29 03:27:00,56.0,44.0,30.19,NNW,340,8.1,8.1,64,0.00,,OVC,0.00,WeatherDisplay:10.37,2013-03-29 07:27:00,
2013-03-29 03:32:00,55.9,43.9,30.19,NNW,339,0.0,0.0,64,0.00,,OVC,0.00,WeatherDisplay:10.37,2013-03-29 07:32:00,
2013-03-29 03:37:00,55.7,44.1,30.19,NNW,338,3.5,3.5,65,0.00,,OVC,0.00,WeatherDisplay:10.37,2013-03-29 07:37:00,
2013-03-29 03:42:00,55.7,44.5,30.19,NNW,337,0.0,0.0,66,0.00,,OVC,0.00,WeatherDisplay:10.37,2013-03-29 07:42:00,
2013-03-29 03:47:00,55.6,44.4,30.18,NNW,337,0.0,0.0,66,0.00,,OVC,0.00,WeatherDisplay:10.37,2013-03-29 07:47:00,
2013-03-29 03:52:00,55.4,44.6,30.18,NNW,337,0.0,0.0,67,0.00,,OVC,0.00,WeatherDisplay:10.37,2013-03-29 07:52:00,
2013-03-29 03:57:00,55.3,44.5,30.18,NNW,337,3.5,3.5,67,0.00,,OVC,0.00,WeatherDisplay:10.37,2013-03-29 07:57:00,
2013-03-29 04:02:00,55.1,44.3,30.18,NNW,337,0.0,0.0,67,0.00,,OVC,0.00,WeatherDisplay:10.37,2013-03-29 08:02:00,
2013-03-29 04:07:00,55.1,44.3,30.18,NNW,337,0.0,0.0,67,0.00,,OVC,0.00,WeatherDisplay:10.37,2013-03-29 08:07:00,
2013-03-29 04:12:00,55.0,44.2,30.18,NNW,337,0.0,0.0,67,0.00,,OVC,0.00,WeatherDisplay:10.37,2013-03-29 08:12:00,
2013-03-29 04:17:00,55.0,44.2,30.18,NNW,336,1.2,0.0,67,0.00,,OVC,0.00,WeatherDisplay:10.37,2013-03-29 08:17:00,
2013-03-29 04:22:00,55.0,44.2,30.18,NNW,336,0.0,0.0,67,0.00,,OVC,0.00,WeatherDisplay:10.37,2013-03-29 08:22:00,
2013-03-29 04:27:00,55.0,44.2,30.18,NNW,335,0.0,0.0,67,0.00,,OVC,0.00,WeatherDisplay:10.37,2013-03-29 08:27:00,
2013-03-29 04:32:00,54.8,44.0,30.18,NNW,335,0.0,0.0,67,0.00,,OVC,0.00,WeatherDisplay:10.37,2013-03-29 08:32:00,
2013-03-29 04:37:00,54.8,44.0,30.18,NNW,335,0.0,0.0,67,0.00,,OVC,0.00,WeatherDisplay:10.37,2013-03-29 08:37:00,
2013-03-29 04:42:00,54.8,44.4,30.18,NNW,333,0.0,0.0,68,0.00,,OVC,0.00,WeatherDisplay:10.37,2013-03-29 08:42:00,
2013-03-29 04:47:00,54.7,44.3,30.18,NNW,332,0.0,0.0,68,0.00,,OVC,0.00,WeatherDisplay:10.37,2013-03-29 08:47:00,
2013-03-29 04:52:00,54.7,44.7,30.18,NNW,332,2.3,2.3,69,0.00,,OVC,0.00,WeatherDisplay:10.37,2013-03-29 08:52:00,
2013-03-29 04:57:00,54.5,44.5,30.18,NNW,331,0.0,0.0,69,0.00,,OVC,0.00,WeatherDisplay:10.37,2013-03-29 08:57:00,
2013-03-29 05:02:00,54.5,44.5,30.18,NNW,330,5.0,5.0,69,0.00,,OVC,0.00,WeatherDisplay:10.37,2013-03-29 09:02:00,
2013-03-29 05:07:00,54.5,44.5,30.18,NNW,330,4.6,4.6,69,0.00,,OVC,0.00,WeatherDisplay:10.37,2013-03-29 09:07:00,
2013-03-29 05:12:00,54.4,44.4,30.18,NNW,330,0.0,0.0,69,0.00,,OVC,0.00,WeatherDisplay:10.37,2013-03-29 09:12:00,
2013-03-29 05:17:00,54.4,44.4,30.18,NNW,329,3.0,3.0,69,0.00,,OVC,0.00,WeatherDisplay:10.37,2013-03-29 09:17:00,
2013-03-29 05:22:00,54.4,44.8,30.18,NNW,329,4.6,4.6,70,0.00,,OVC,0.00,WeatherDisplay:10.37,2013-03-29 09:22:00,
2013-03-29 05:27:00,54.4,44.8,30.18,NNW,329,6.0,6.0,70,0.00,,OVC,0.00,WeatherDisplay:10.37,2013-03-29 09:27:00,
2013-03-29 05:32:00,54.5,44.9,30.18,NNW,328,4.6,4.6,70,0.00,,OVC,0.00,WeatherDisplay:10.37,2013-03-29 09:32:00,
2013-03-29 05:37:00,54.5,44.9,30.18,NNW,327,10.4,10.4,70,0.00,,OVC,0.00,WeatherDisplay:10.37,2013-03-29 09:37:00,
2013-03-29 05:42:00,54.5,44.9,30.18,NW,325,1.2,0.0,70,0.00,,OVC,0.00,WeatherDisplay:10.37,2013-03-29 09:42:00,
2013-03-29 05:48:00,54.5,44.9,30.18,NW,325,9.2,9.2,70,0.00,,OVC,0.00,WeatherDisplay:10.37,2013-03-29 09:48:00,
2013-03-29 05:52:00,54.5,45.3,30.18,NW,323,9.2,9.2,71,0.00,,OVC,0.00,WeatherDisplay:10.37,2013-03-29 09:52:00,
2013-03-29 05:58:00,54.5,45.3,30.18,NW,317,11.5,11.5,71,0.00,,OVC,0.00,WeatherDisplay:10.37,2013-03-29 09:58:00,
2013-03-29 06:03:00,54.5,45.3,30.19,NW,321,8.1,8.1,71,0.00,CLR,OVC,0.00,WeatherDisplay:10.37,2013-03-29 10:03:00,
2013-03-29 06:08:00,54.5,45.3,30.19,NW,324,9.0,9.0,71,0.00,CLR,OVC,0.00,WeatherDisplay:10.37,2013-03-29 10:08:00,
2013-03-29 06:13:00,54.5,45.3,30.19,NW,324,0.0,0.0,71,0.00,CLR,OVC,0.00,WeatherDisplay:10.37,2013-03-29 10:13:00,
2013-03-29 06:18:00,54.4,45.2,30.19,NW,321,8.1,8.1,71,0.00,CLR,OVC,0.00,WeatherDisplay:10.37,2013-03-29 10:18:00,
2013-03-29 06:23:00,54.4,45.2,30.19,NNW,333,11.5,11.5,71,0.00,CLR,OVC,0.00,WeatherDisplay:10.37,2013-03-29 10:23:00,
2013-03-29 06:28:00,54.4,45.6,30.19,NNW,332,0.0,0.0,72,0.00,CLR,OVC,0.00,WeatherDisplay:10.37,2013-03-29 10:28:00,
2013-03-29 06:33:00,54.2,45.4,30.20,NNW,331,0.0,0.0,72,0.00,CLR,OVC,0.00,WeatherDisplay:10.37,2013-03-29 10:33:00,
2013-03-29 06:38:00,54.2,45.4,30.20,NNW,330,5.8,5.8,72,0.00,CLR,OVC,0.00,WeatherDisplay:10.37,2013-03-29 10:38:00,
2013-03-29 06:43:00,54.2,45.4,30.20,NNW,327,11.5,11.5,72,0.00,CLR,OVC,0.00,WeatherDisplay:10.37,2013-03-29 10:43:00,
2013-03-29 06:48:00,54.4,45.9,30.20,NW,322,1.2,1.2,73,0.00,CLR,OVC,0.00,WeatherDisplay:10.37,2013-03-29 10:48:00,
2013-03-29 06:53:00,54.4,45.9,30.20,NNW,331,11.5,11.5,73,0.00,CLR,OVC,0.00,WeatherDisplay:10.37,2013-03-29 10:53:00,
2013-03-29 06:58:00,54.4,45.9,30.20,NNW,331,2.3,2.3,73,0.00,CLR,OVC,0.00,WeatherDisplay:10.37,2013-03-29 10:58:00,
2013-03-29 07:03:00,54.4,45.9,30.20,NNW,327,3.5,3.5,73,0.00,,OVC,0.00,WeatherDisplay:10.37,2013-03-29 11:03:00,
2013-03-29 07:08:00,54.4,45.9,30.20,NNW,327,9.2,9.2,73,0.00,,OVC,0.00,WeatherDisplay:10.37,2013-03-29 11:08:00,
2013-03-29 07:13:00,54.4,45.6,30.20,NNW,327,0.0,0.0,72,0.00,,OVC,0.00,WeatherDisplay:10.37,2013-03-29 11:13:00,
2013-03-29 07:18:00,54.4,45.6,30.21,NNW,328,5.8,5.8,72,0.00,,OVC,0.00,WeatherDisplay:10.37,2013-03-29 11:18:00,
2013-03-29 07:23:00,54.5,45.7,30.21,NNW,328,0.0,0.0,72,0.00,,OVC,0.00,WeatherDisplay:10.37,2013-03-29 11:23:00,
2013-03-29 07:28:00,54.5,45.7,30.21,NNW,327,8.1,8.1,72,0.00,,OVC,0.00,WeatherDisplay:10.37,2013-03-29 11:28:00,
2013-03-29 07:33:00,54.5,45.7,30.21,NNW,327,10.4,10.4,72,0.00,,OVC,0.00,WeatherDisplay:10.37,2013-03-29 11:33:00,
2013-03-29 07:38:00,54.7,45.8,30.21,NNW,329,9.2,9.2,72,0.00,,OVC,0.00,WeatherDisplay:10.37,2013-03-29 11:38:00,
2013-03-29 07:43:00,55.0,45.8,30.21,NNW,329,11.5,11.5,71,0.00,,OVC,0.00,WeatherDisplay:10.37,2013-03-29 11:43:00,
2013-03-29 07:48:00,55.3,46.1,30.21,NNW,327,10.4,10.4,71,0.00,,OVC,0.00,WeatherDisplay:10.37,2013-03-29 11:48:00,
2013-03-29 07:53:00,55.4,46.2,30.21,NW,325,10.0,10.0,71,0.00,,OVC,0.00,WeatherDisplay:10.37,2013-03-29 11:53:00,
2013-03-29 07:58:00,55.9,46.6,30.21,NW,326,11.5,11.5,71,0.00,,OVC,0.00,WeatherDisplay:10.37,2013-03-29 11:58:00,
2013-03-29 08:03:00,56.2,46.5,30.22,NW,320,0.0,0.3,70,0.00,CLR,OVC,0.00,WeatherDisplay:10.37,2013-03-29 12:03:00,
2013-03-29 08:08:00,56.6,46.5,30.22,NW,325,9.0,0.0,69,0.00,CLR,OVC,0.00,WeatherDisplay:10.37,2013-03-29 12:08:00,
2013-03-29 08:13:00,57.0,46.9,30.22,NW,315,0.0,0.5,69,0.00,CLR,OVC,0.00,WeatherDisplay:10.37,2013-03-29 12:13:00,
2013-03-29 08:18:00,57.5,46.6,30.22,NNW,340,11.5,11.5,67,0.00,CLR,OVC,0.00,WeatherDisplay:10.37,2013-03-29 12:18:00,
2013-03-29 08:23:00,58.1,46.8,30.22,NW,317,10.4,10.4,66,0.00,CLR,OVC,0.00,WeatherDisplay:10.37,2013-03-29 12:23:00,
2013-03-29 08:28:00,58.7,47.0,30.22,NNW,333,9.2,9.2,65,0.00,CLR,OVC,0.00,WeatherDisplay:10.37,2013-03-29 12:28:00,
2013-03-29 08:33:00,59.3,47.1,30.23,NNW,338,8.1,8.1,64,0.00,CLR,OVC,0.00,WeatherDisplay:10.37,2013-03-29 12:33:00,
2013-03-29 08:38:00,59.9,47.3,30.23,NNW,348,9.2,9.2,63,0.00,CLR,OVC,0.00,WeatherDisplay:10.37,2013-03-29 12:38:00,
2013-03-29 08:43:00,60.4,47.3,30.23,North,355,13.8,13.8,62,0.00,CLR,OVC,0.00,WeatherDisplay:10.37,2013-03-29 12:43:00,
2013-03-29 08:48:00,61.0,47.0,30.23,NNW,335,15.0,15.0,60,0.00,CLR,OVC,0.00,WeatherDisplay:10.37,2013-03-29 12:48:00,
2013-03-29 08:53:00,61.5,47.0,30.23,NNW,331,11.5,11.5,59,0.00,CLR,OVC,0.00,WeatherDisplay:10.37,2013-03-29 12:53:00,
2013-03-29 08:58:00,62.1,47.1,30.23,NW,323,10.4,10.4,58,0.00,CLR,OVC,0.00,WeatherDisplay:10.37,2013-03-29 12:58:00,
2013-03-29 09:03:00,62.6,46.7,30.23,NNW,345,19.6,19.6,56,0.00,CLR,OVC,0.00,WeatherDisplay:10.37,2013-03-29 13:03:00,
2013-03-29 09:08:00,63.1,47.1,30.23,NNW,335,19.6,19.6,56,0.00,CLR,OVC,0.00,WeatherDisplay:10.37,2013-03-29 13:08:00,
2013-03-29 09:13:00,63.7,47.7,30.23,NW,313,9.0,9.0,56,0.00,CLR,OVC,0.00,WeatherDisplay:10.37,2013-03-29 13:13:00,
2013-03-29 09:18:00,64.2,47.2,30.24,NW,325,9.2,9.2,54,0.00,CLR,OVC,0.00,WeatherDisplay:10.37,2013-03-29 13:18:00,
2013-03-29 09:23:00,64.7,48.2,30.24,NNE,14,11.5,11.5,55,0.00,CLR,OVC,0.00,WeatherDisplay:10.37,2013-03-29 13:23:00,
2013-03-29 09:28:00,65.2,47.6,30.24,NNW,341,11.5,11.5,53,0.00,CLR,OVC,0.00,WeatherDisplay:10.37,2013-03-29 13:28:00,
2013-03-29 09:33:00,65.6,47.5,30.24,NW,319,19.6,19.6,52,0.00,CLR,OVC,0.00,WeatherDisplay:10.37,2013-03-29 13:33:00,
2013-03-29 09:38:00,66.1,48.5,30.24,NNW,327,2.3,3.9,53,0.00,CLR,OVC,0.00,WeatherDisplay:10.37,2013-03-29 13:38:00,
2013-03-29 09:43:00,66.6,47.4,30.24,NW,315,13.8,13.8,50,0.00,CLR,OVC,0.00,WeatherDisplay:10.37,2013-03-29 13:43:00,
2013-03-29 09:48:00,66.9,47.1,30.24,NW,325,21.9,21.9,49,0.00,CLR,OVC,0.00,WeatherDisplay:10.37,2013-03-29 13:48:00,
2013-03-29 09:53:00,67.1,47.3,30.24,NNW,329,19.6,19.6,49,0.00,CLR,OVC,0.00,WeatherDisplay:10.37,2013-03-29 13:53:00,
2013-03-29 09:58:00,67.4,48.1,30.24,NNW,336,15.0,15.0,50,0.00,CLR,OVC,0.00,WeatherDisplay:10.37,2013-03-29 13:58:00,
2013-03-29 10:03:00,67.9,47.5,30.25,North,10,16.1,16.1,48,0.00,CLR,OVC,0.00,WeatherDisplay:10.37,2013-03-29 14:03:00,
2013-03-29 10:08:00,68.4,47.9,30.25,NW,316,17.3,17.3,48,0.00,CLR,OVC,0.00,WeatherDisplay:10.37,2013-03-29 14:08:00,
2013-03-29 10:13:00,68.9,47.8,30.25,NW,325,19.6,19.6,47,0.00,CLR,OVC,0.00,WeatherDisplay:10.37,2013-03-29 14:13:00,
2013-03-29 10:18:00,69.3,47.6,30.25,NW,325,17.3,17.3,46,0.00,CLR,OVC,0.00,WeatherDisplay:10.37,2013-03-29 14:18:00,
2013-03-29 10:23:00,69.6,47.9,30.25,NW,304,13.8,13.8,46,0.00,CLR,OVC,0.00,WeatherDisplay:10.37,2013-03-29 14:23:00,
2013-03-29 10:28:00,70.1,49.5,30.25,NNW,340,13.8,13.8,48,0.00,CLR,OVC,0.00,WeatherDisplay:10.37,2013-03-29 14:28:00,
2013-03-29 10:34:00,70.1,48.4,30.26,NNW,345,19.6,19.6,46,0.00,CLR,OVC,0.00,WeatherDisplay:10.37,2013-03-29 14:34:00,
2013-03-29 10:39:00,70.1,48.4,30.26,NE,41,14.0,14.0,46,0.00,CLR,OVC,0.00,WeatherDisplay:10.37,2013-03-29 14:39:00,
2013-03-29 10:44:00,70.3,47.3,30.26,NNE,32,24.2,24.2,44,0.00,CLR,OVC,0.00,WeatherDisplay:10.37,2013-03-29 14:44:00,
2013-03-29 10:49:00,70.3,48.5,30.26,NNW,329,0.0,2.6,46,0.00,CLR,OVC,0.00,WeatherDisplay:10.37,2013-03-29 14:49:00,
2013-03-29 10:54:00,70.9,48.5,30.26,NNW,338,18.4,18.4,45,0.00,CLR,OVC,0.00,WeatherDisplay:10.37,2013-03-29 14:54:00,
2013-03-29 10:59:00,71.5,47.8,30.26,North,360,23.0,23.0,43,0.00,CLR,OVC,0.00,WeatherDisplay:10.37,2013-03-29 14:59:00,
2013-03-29 11:04:00,71.5,47.8,30.26,NNE,25,28.8,28.8,43,0.00,,OVC,0.00,WeatherDisplay:10.37,2013-03-29 15:04:00,
2013-03-29 11:09:00,71.1,48.1,30.26,NE,36,19.6,19.6,44,0.00,,OVC,0.00,WeatherDisplay:10.37,2013-03-29 15:09:00,
2013-03-29 11:14:00,71.3,47.6,30.26,ENE,60,19.6,19.6,43,0.00,,OVC,0.00,WeatherDisplay:10.37,2013-03-29 15:14:00,
2013-03-29 11:19:00,71.3,48.3,30.26,ENE,65,15.0,15.0,44,0.00,,OVC,0.00,WeatherDisplay:10.37,2013-03-29 15:19:00,
2013-03-29 11:24:00,71.6,47.9,30.26,NE,45,23.0,23.0,43,0.00,,OVC,0.00,WeatherDisplay:10.37,2013-03-29 15:24:00,
2013-03-29 11:29:00,71.6,47.9,30.25,NE,34,16.1,16.1,43,0.00,,OVC,0.00,WeatherDisplay:10.37,2013-03-29 15:29:00,
2013-03-29 11:34:00,71.8,48.1,30.25,NNW,338,11.5,11.5,43,0.00,,OVC,0.00,WeatherDisplay:10.37,2013-03-29 15:34:00,
2013-03-29 11:39:00,72.1,48.4,30.25,North,5,24.2,24.2,43,0.00,,OVC,0.00,WeatherDisplay:10.37,2013-03-29 15:39:00,
2013-03-29 11:44:00,72.1,47.7,30.25,ENE,76,14.0,14.0,42,0.00,,OVC,0.00,WeatherDisplay:10.37,2013-03-29 15:44:00,
2013-03-29 11:49:00,72.0,47.0,30.25,NE,52,20.7,20.7,41,0.00,,OVC,0.00,WeatherDisplay:10.37,2013-03-29 15:49:00,
2013-03-29 11:54:00,72.0,47.0,30.25,NE,40,18.4,18.4,41,0.00,,OVC,0.00,WeatherDisplay:10.37,2013-03-29 15:54:00,
2013-03-29 11:59:00,72.3,47.3,30.25,NNW,346,8.1,8.1,41,0.00,,OVC,0.00,WeatherDisplay:10.37,2013-03-29 15:59:00,
2013-03-29 12:04:00,72.8,47.7,30.25,NNW,333,22.0,22.0,41,0.00,,OVC,0.00,WeatherDisplay:10.37,2013-03-29 16:04:00,
2013-03-29 12:09:00,72.7,45.6,30.25,ENE,61,0.0,0.0,38,0.00,,OVC,0.00,WeatherDisplay:10.37,2013-03-29 16:09:00,
2013-03-29 12:14:00,73.0,49.2,30.24,NE,42,18.4,18.4,43,0.00,,OVC,0.00,WeatherDisplay:10.37,2013-03-29 16:14:00,
2013-03-29 12:19:00,72.8,47.7,30.24,ENE,67,16.0,16.0,41,0.00,,OVC,0.00,WeatherDisplay:10.37,2013-03-29 16:19:00,
2013-03-29 12:24:00,73.2,48.7,30.24,ENE,61,29.9,29.9,42,0.00,,OVC,0.00,WeatherDisplay:10.37,2013-03-29 16:24:00,
2013-03-29 12:29:00,72.0,47.0,30.24,East,86,18.4,18.4,41,0.00,,OVC,0.00,WeatherDisplay:10.37,2013-03-29 16:29:00,
2013-03-29 12:34:00,71.5,47.2,30.24,ENE,75,19.6,19.6,42,0.00,,OVC,0.00,WeatherDisplay:10.37,2013-03-29 16:34:00,
2013-03-29 12:39:00,72.3,45.9,30.24,NNE,13,17.3,17.3,39,0.00,,OVC,0.00,WeatherDisplay:10.37,2013-03-29 16:39:00,
2013-03-29 12:44:00,72.5,46.8,30.23,NNE,25,18.4,18.4,40,0.00,,OVC,0.00,WeatherDisplay:10.37,2013-03-29 16:44:00,
2013-03-29 12:49:00,72.0,47.6,30.23,NE,53,13.8,13.8,42,0.00,,OVC,0.00,WeatherDisplay:10.37,2013-03-29 16:49:00,
2013-03-29 12:54:00,72.7,48.3,30.23,NE,38,11.5,11.5,42,0.00,,OVC,0.00,WeatherDisplay:10.37,2013-03-29 16:54:00,
2013-03-29 12:59:00,72.3,49.2,30.23,NE,50,13.8,13.8,44,0.00,,OVC,0.00,WeatherDisplay:10.37,2013-03-29 16:59:00,
2013-03-29 13:04:00,72.3,48.5,30.23,ENE,58,15.0,15.0,43,0.00,,OVC,0.00,WeatherDisplay:10.37,2013-03-29 17:04:00,
2013-03-29 13:09:00,72.7,48.3,30.23,NNE,18,10.4,10.4,42,0.00,,OVC,0.00,WeatherDisplay:10.37,2013-03-29 17:09:00,
2013-03-29 13:14:00,72.7,47.0,30.23,ENE,60,13.8,13.8,40,0.00,,OVC,0.00,WeatherDisplay:10.37,2013-03-29 17:14:00,
2013-03-29 13:19:00,71.8,47.5,30.23,NNW,342,19.6,19.6,42,0.00,,OVC,0.00,WeatherDisplay:10.37,2013-03-29 17:19:00,
2013-03-29 13:24:00,72.3,47.3,30.23,East,82,17.3,17.3,41,0.00,,OVC,0.00,WeatherDisplay:10.37,2013-03-29 17:24:00,
2013-03-29 13:29:00,72.1,49.6,30.22,NNE,16,20.7,20.7,45,0.00,,OVC,0.00,WeatherDisplay:10.37,2013-03-29 17:29:00,
2013-03-29 13:34:00,71.8,48.7,30.22,NNE,25,19.6,19.6,44,0.00,,OVC,0.00,WeatherDisplay:10.37,2013-03-29 17:34:00,
2013-03-29 13:39:00,71.6,49.1,30.22,East,82,12.7,12.7,45,0.00,,OVC,0.00,WeatherDisplay:10.37,2013-03-29 17:39:00,
2013-03-29 13:44:00,71.8,49.9,30.21,NNE,29,13.8,13.8,46,0.00,,OVC,0.00,WeatherDisplay:10.37,2013-03-29 17:44:00,
2013-03-29 13:49:00,71.6,49.7,30.21,ENE,73,27.6,27.6,46,0.00,,OVC,0.00,WeatherDisplay:10.37,2013-03-29 17:49:00,
2013-03-29 13:54:00,71.8,49.3,30.21,NNE,28,12.0,12.0,45,0.00,,OVC,0.00,WeatherDisplay:10.37,2013-03-29 17:54:00,
2013-03-29 13:59:00,71.5,49.0,30.21,NE,40,20.7,20.7,45,0.00,,OVC,0.00,WeatherDisplay:10.37,2013-03-29 17:59:00,
2013-03-29 14:04:00,71.5,49.6,30.21,NE,40,15.0,15.0,46,0.00,,OVC,0.00,WeatherDisplay:10.37,2013-03-29 18:04:00,
2013-03-29 14:09:00,71.3,50.0,30.21,ENE,71,20.7,20.7,47,0.00,,OVC,0.00,WeatherDisplay:10.37,2013-03-29 18:09:00,
2013-03-29 14:14:00,72.0,50.7,30.20,NE,34,21.0,21.0,47,0.00,,OVC,0.00,WeatherDisplay:10.37,2013-03-29 18:14:00,
2013-03-29 14:19:00,72.0,50.1,30.20,ENE,65,17.3,17.3,46,0.00,,OVC,0.00,WeatherDisplay:10.37,2013-03-29 18:19:00,
2013-03-29 14:24:00,71.8,49.9,30.20,ENE,70,26.5,26.5,46,0.00,,OVC,0.00,WeatherDisplay:10.37,2013-03-29 18:24:00,
2013-03-29 14:29:00,71.6,49.7,30.20,NNE,23,16.0,16.0,46,0.00,,OVC,0.00,WeatherDisplay:10.37,2013-03-29 18:29:00,
2013-03-29 14:34:00,71.6,49.7,30.20,NE,52,18.4,18.4,46,0.00,,OVC,0.00,WeatherDisplay:10.37,2013-03-29 18:34:00,
2013-03-29 14:39:00,72.0,50.1,30.20,NE,47,10.4,10.4,46,0.00,,OVC,0.00,WeatherDisplay:10.37,2013-03-29 18:39:00,
2013-03-29 14:44:00,72.8,50.8,30.19,ENE,78,19.6,19.6,46,0.00,,OVC,0.00,WeatherDisplay:10.37,2013-03-29 18:44:00,
2013-03-29 14:49:00,72.8,49.6,30.19,NNE,32,24.2,24.2,44,0.00,,OVC,0.00,WeatherDisplay:10.37,2013-03-29 18:49:00,
2013-03-29 14:54:00,71.6,49.1,30.19,NE,56,23.0,23.0,45,0.00,,OVC,0.00,WeatherDisplay:10.37,2013-03-29 18:54:00,
2013-03-29 15:00:00,71.8,49.3,30.19,North,10,10.4,10.4,45,0.00,,OVC,0.00,WeatherDisplay:10.37,2013-03-29 19:00:00,
2013-03-29 15:05:00,72.3,49.2,30.19,NNE,21,0.0,0.0,44,0.00,,OVC,0.00,WeatherDisplay:10.37,2013-03-29 19:05:00,
2013-03-29 15:10:00,73.2,50.0,30.19,ENE,66,1.0,0.0,44,0.00,,OVC,0.00,WeatherDisplay:10.37,2013-03-29 19:10:00,
2013-03-29 15:15:00,73.3,48.8,30.18,NE,47,0.0,0.0,42,0.00,,OVC,0.00,WeatherDisplay:10.37,2013-03-29 19:15:00,
2013-03-29 15:20:00,72.8,49.0,30.18,NE,54,17.0,17.0,43,0.00,,OVC,0.00,WeatherDisplay:10.37,2013-03-29 19:20:00,
2013-03-29 15:25:00,71.6,48.5,30.18,NNE,33,20.7,20.7,44,0.00,,OVC,0.00,WeatherDisplay:10.37,2013-03-29 19:25:00,
2013-03-29 15:30:00,71.3,48.9,30.18,ENE,61,11.5,11.5,45,0.00,,OVC,0.00,WeatherDisplay:10.37,2013-03-29 19:30:00,
2013-03-29 15:35:00,71.3,48.9,30.18,East,87,19.6,19.6,45,0.00,,OVC,0.00,WeatherDisplay:10.37,2013-03-29 19:35:00,
2013-03-29 15:40:00,71.6,49.1,30.18,NE,42,21.9,21.9,45,0.00,,OVC,0.00,WeatherDisplay:10.37,2013-03-29 19:40:00,
2013-03-29 15:45:00,72.1,49.6,30.18,NE,55,26.5,26.5,45,0.00,,OVC,0.00,WeatherDisplay:10.37,2013-03-29 19:45:00,
2013-03-29 15:50:00,72.5,49.9,30.18,ENE,71,0.0,0.0,45,0.00,,OVC,0.00,WeatherDisplay:10.37,2013-03-29 19:50:00,
2013-03-29 15:55:00,72.3,49.8,30.18,ENE,58,15.0,15.0,45,0.00,,OVC,0.00,WeatherDisplay:10.37,2013-03-29 19:55:00,
2013-03-29 16:00:00,72.0,49.5,30.17,ENE,74,6.9,6.9,45,0.00,,OVC,0.00,WeatherDisplay:10.37,2013-03-29 20:00:00,
2013-03-29 16:05:00,71.6,50.3,30.17,NNE,19,3.5,3.5,47,0.00,,OVC,0.00,WeatherDisplay:10.37,2013-03-29 20:05:00,
2013-03-29 16:10:00,71.6,49.7,30.17,NNE,26,23.0,23.0,46,0.00,,OVC,0.00,WeatherDisplay:10.37,2013-03-29 20:10:00,
2013-03-29 16:15:00,71.6,49.1,30.17,North,9,11.5,11.5,45,0.00,,OVC,0.00,WeatherDisplay:10.37,2013-03-29 20:15:00,
2013-03-29 16:20:00,71.8,49.3,30.17,ENE,75,19.6,19.6,45,0.00,,OVC,0.00,WeatherDisplay:10.37,2013-03-29 20:20:00,
2013-03-29 16:25:00,72.3,49.2,30.17,ENE,61,17.3,17.3,44,0.00,,OVC,0.00,WeatherDisplay:10.37,2013-03-29 20:25:00,
2013-03-29 16:30:00,72.5,50.5,30.17,ENE,57,10.0,10.0,46,0.00,,OVC,0.00,WeatherDisplay:10.37,2013-03-29 20:30:00,
2013-03-29 16:35:00,72.0,49.5,30.17,ENE,65,15.0,15.0,45,0.00,,OVC,0.00,WeatherDisplay:10.37,2013-03-29 20:35:00,
2013-03-29 16:40:00,72.0,50.1,30.17,ENE,59,17.3,17.3,46,0.00,,OVC,0.00,WeatherDisplay:10.37,2013-03-29 20:40:00,
2013-03-29 16:45:00,72.0,49.5,30.18,ENE,69,10.4,10.4,45,0.00,,OVC,0.00,WeatherDisplay:10.37,2013-03-29 20:45:00,
2013-03-29 16:50:00,72.0,50.1,30.18,ESE,110,0.0,0.0,46,0.00,,OVC,0.00,WeatherDisplay:10.37,2013-03-29 20:50:00,
2013-03-29 16:55:00,72.1,49.0,30.18,ESE,112,10.4,10.4,44,0.00,,OVC,0.00,WeatherDisplay:10.37,2013-03-29 20:55:00,
2013-03-29 17:00:00,72.1,49.0,30.18,ENE,61,19.6,19.6,44,0.00,,OVC,0.00,WeatherDisplay:10.37,2013-03-29 21:00:00,
2013-03-29 17:05:00,72.3,49.8,30.18,ENE,61,17.3,17.3,45,0.00,,OVC,0.00,WeatherDisplay:10.37,2013-03-29 21:05:00,
2013-03-29 17:10:00,72.0,47.6,30.18,ENE,71,29.9,29.9,42,0.00,,OVC,0.00,WeatherDisplay:10.37,2013-03-29 21:10:00,
2013-03-29 17:15:00,71.3,50.0,30.18,ENE,59,17.3,17.3,47,0.00,,OVC,0.00,WeatherDisplay:10.37,2013-03-29 21:15:00,
2013-03-29 17:20:00,70.9,50.8,30.18,East,101,3.5,3.5,49,0.00,,OVC,0.00,WeatherDisplay:10.37,2013-03-29 21:20:00,
2013-03-29 17:25:00,71.3,50.0,30.18,East,93,12.7,12.7,47,0.00,,OVC,0.00,WeatherDisplay:10.37,2013-03-29 21:25:00,
2013-03-29 17:30:00,71.3,49.4,30.18,SE,127,0.0,0.0,46,0.00,,OVC,0.00,WeatherDisplay:10.37,2013-03-29 21:30:00,
2013-03-29 17:35:00,71.3,50.0,30.18,ENE,74,13.8,13.8,47,0.00,,OVC,0.00,WeatherDisplay:10.37,2013-03-29 21:35:00,
2013-03-29 17:40:00,71.5,50.8,30.18,ENE,62,11.5,11.5,48,0.00,,OVC,0.00,WeatherDisplay:10.37,2013-03-29 21:40:00,
2013-03-29 17:45:00,70.9,51.3,30.18,ENE,60,12.7,12.7,50,0.00,,OVC,0.00,WeatherDisplay:10.37,2013-03-29 21:45:00,
2013-03-29 17:50:00,70.6,51.1,30.18,East,84,9.2,9.2,50,0.00,,OVC,0.00,WeatherDisplay:10.37,2013-03-29 21:50:00,
2013-03-29 17:55:00,70.3,50.2,30.18,ENE,64,21.9,21.9,49,0.00,,OVC,0.00,WeatherDisplay:10.37,2013-03-29 21:55:00,
2013-03-29 18:00:00,70.1,51.1,30.18,East,98,12.7,12.7,51,0.00,,OVC,0.00,WeatherDisplay:10.37,2013-03-29 22:00:00,
2013-03-29 18:05:00,70.3,51.8,30.18,East,81,12.7,0.0,52,0.00,,OVC,0.00,WeatherDisplay:10.37,2013-03-29 22:05:00,
2013-03-29 18:10:00,70.4,51.4,30.18,ENE,57,19.6,19.6,51,0.00,,OVC,0.00,WeatherDisplay:10.37,2013-03-29 22:10:00,
2013-03-29 18:15:00,70.3,51.8,30.18,ENE,75,11.5,11.5,52,0.00,,OVC,0.00,WeatherDisplay:10.37,2013-03-29 22:15:00,
2013-03-29 18:20:00,70.1,52.2,30.18,NE,51,14.0,14.0,53,0.00,,OVC,0.00,WeatherDisplay:10.37,2013-03-29 22:20:00,
2013-03-29 18:25:00,69.8,51.4,30.18,ENE,59,11.5,11.5,52,0.00,,OVC,0.00,WeatherDisplay:10.37,2013-03-29 22:25:00,
2013-03-29 18:30:00,69.8,50.9,30.18,East,86,16.1,16.1,51,0.00,,OVC,0.00,WeatherDisplay:10.37,2013-03-29 22:30:00,
2013-03-29 18:35:00,69.4,51.0,30.18,ENE,63,19.6,19.6,52,0.00,,OVC,0.00,WeatherDisplay:10.37,2013-03-29 22:35:00,
2013-03-29 18:40:00,69.3,51.4,30.18,NE,48,9.2,9.2,53,0.00,,OVC,0.00,WeatherDisplay:10.37,2013-03-29 22:40:00,
2013-03-29 18:45:00,69.1,51.2,30.18,NE,54,16.1,16.1,53,0.00,,OVC,0.00,WeatherDisplay:10.37,2013-03-29 22:45:00,
2013-03-29 18:50:00,68.9,50.5,30.18,ENE,61,15.0,15.0,52,0.00,,OVC,0.00,WeatherDisplay:10.37,2013-03-29 22:50:00,
2013-03-29 18:55:00,68.9,50.5,30.18,ENE,65,13.8,13.8,52,0.00,,OVC,0.00,WeatherDisplay:10.37,2013-03-29 22:55:00,
2013-03-29 19:00:00,68.8,51.0,30.18,NE,42,21.9,21.9,53,0.00,,OVC,0.00,WeatherDisplay:10.37,2013-03-29 23:00:00,
2013-03-29 19:05:00,68.6,50.8,30.18,SE,132,17.3,17.3,53,0.00,,OVC,0.00,WeatherDisplay:10.37,2013-03-29 23:05:00,
2013-03-29 19:10:00,68.6,51.8,30.18,ENE,65,8.1,8.1,55,0.00,,OVC,0.00,WeatherDisplay:10.37,2013-03-29 23:10:00,
2013-03-29 19:15:00,68.3,51.5,30.18,NNE,32,12.7,12.7,55,0.00,,OVC,0.00,WeatherDisplay:10.37,2013-03-29 23:15:00,
2013-03-29 19:20:00,68.1,51.3,30.18,ENE,75,13.8,13.8,55,0.00,,OVC,0.00,WeatherDisplay:10.37,2013-03-29 23:20:00,
2013-03-29 19:25:00,67.9,51.6,30.18,East,88,16.1,16.1,56,0.00,,OVC,0.00,WeatherDisplay:10.37,2013-03-29 23:25:00,
2013-03-29 19:30:00,67.8,51.5,30.18,ENE,74,19.6,19.6,56,0.00,,OVC,0.00,WeatherDisplay:10.37,2013-03-29 23:30:00,
2013-03-29 19:35:00,67.6,51.8,30.18,ENE,78,16.1,16.1,57,0.00,,OVC,0.00,WeatherDisplay:10.37,2013-03-29 23:35:00,
2013-03-29 19:40:00,67.4,51.2,30.18,ENE,64,11.5,11.5,56,0.00,,OVC,0.00,WeatherDisplay:10.37,2013-03-29 23:40:00,
2013-03-29 19:45:00,67.3,51.5,30.18,East,87,15.0,15.0,57,0.00,,OVC,0.00,WeatherDisplay:10.37,2013-03-29 23:45:00,
2013-03-29 19:50:00,67.1,51.8,30.18,ENE,63,18.4,18.4,58,0.00,,OVC,0.00,WeatherDisplay:10.37,2013-03-29 23:50:00,
2013-03-29 19:55:00,67.1,51.8,30.18,NE,42,16.1,16.1,58,0.00,,OVC,0.00,WeatherDisplay:10.37,2013-03-29 23:55:00,
2013-03-29 20:00:00,67.1,51.8,30.18,ENE,61,15.0,15.0,58,0.00,,OVC,0.00,WeatherDisplay:10.37,2013-03-30 00:00:00,
2013-03-29 20:06:00,66.9,51.6,30.18,NE,55,4.6,4.6,58,0.00,,OVC,0.00,WeatherDisplay:10.37,2013-03-30 00:06:00,
2013-03-29 20:11:00,66.8,52.0,30.18,ENE,69,9.2,9.2,59,0.00,,OVC,0.00,WeatherDisplay:10.37,2013-03-30 00:11:00,
2013-03-29 20:16:00,66.6,51.4,30.19,ENE,65,12.7,12.7,58,0.00,,OVC,0.00,WeatherDisplay:10.37,2013-03-30 00:16:00,
2013-03-29 20:21:00,66.4,51.2,30.19,ENE,67,3.5,3.5,58,0.00,,OVC,0.00,WeatherDisplay:10.37,2013-03-30 00:21:00,
2013-03-29 20:26:00,66.4,51.6,30.19,NE,39,9.2,9.2,59,0.00,,OVC,0.00,WeatherDisplay:10.37,2013-03-30 00:26:00,
2013-03-29 20:31:00,66.3,51.5,30.19,NE,55,0.0,0.0,59,0.00,,OVC,0.00,WeatherDisplay:10.37,2013-03-30 00:31:00,
2013-03-29 20:36:00,66.1,51.8,30.19,NE,56,0.0,0.0,60,0.00,,OVC,0.00,WeatherDisplay:10.37,2013-03-30 00:36:00,
2013-03-29 20:41:00,66.0,51.7,30.19,NE,55,0.0,0.0,60,0.00,,OVC,0.00,WeatherDisplay:10.37,2013-03-30 00:41:00,
2013-03-29 20:46:00,66.0,51.7,30.19,ENE,64,0.0,0.0,60,0.00,,OVC,0.00,WeatherDisplay:10.37,2013-03-30 00:46:00,
2013-03-29 20:52:00,65.8,51.5,30.19,ENE,65,0.0,0.0,60,0.00,,OVC,0.00,WeatherDisplay:10.37,2013-03-30 00:52:00,
2013-03-29 20:57:00,65.6,51.3,30.19,ENE,66,7.0,7.0,60,0.00,,OVC,0.00,WeatherDisplay:10.37,2013-03-30 00:57:00,
2013-03-29 21:02:00,65.6,51.8,30.20,ENE,71,6.9,6.9,61,0.00,,OVC,0.00,WeatherDisplay:10.37,2013-03-30 01:02:00,
2013-03-29 21:07:00,65.5,51.2,30.20,ENE,71,0.0,0.0,60,0.00,,OVC,0.00,WeatherDisplay:10.37,2013-03-30 01:07:00,
2013-03-29 21:12:00,65.3,51.5,30.20,ENE,71,0.0,0.0,61,0.00,,OVC,0.00,WeatherDisplay:10.37,2013-03-30 01:12:00,
2013-03-29 21:17:00,65.3,51.5,30.20,ENE,71,0.0,0.0,61,0.00,,OVC,0.00,WeatherDisplay:10.37,2013-03-30 01:17:00,
2013-03-29 21:22:00,65.2,51.4,30.20,ENE,71,0.0,0.0,61,0.00,,OVC,0.00,WeatherDisplay:10.37,2013-03-30 01:22:00,
2013-03-29 21:28:00,65.0,51.7,30.20,ENE,71,0.0,0.0,62,0.00,,OVC,0.00,WeatherDisplay:10.37,2013-03-30 01:28:00,
2013-03-29 21:33:00,64.7,51.8,30.21,ENE,71,0.0,0.0,63,0.00,,OVC,0.00,WeatherDisplay:10.37,2013-03-30 01:33:00,
2013-03-29 21:38:00,64.3,51.4,30.21,ENE,71,0.0,0.0,63,0.00,,OVC,0.00,WeatherDisplay:10.37,2013-03-30 01:38:00,
2013-03-29 21:43:00,64.2,51.8,30.21,ENE,71,0.0,0.0,64,0.00,,OVC,0.00,WeatherDisplay:10.37,2013-03-30 01:43:00,
2013-03-29 21:48:00,64.0,51.6,30.21,ENE,71,0.0,0.0,64,0.00,,OVC,0.00,WeatherDisplay:10.37,2013-03-30 01:48:00,
2013-03-29 21:53:00,63.9,51.5,30.21,ENE,71,0.0,0.0,64,0.00,,OVC,0.00,WeatherDisplay:10.37,2013-03-30 01:53:00,
2013-03-29 21:58:00,63.7,51.7,30.21,ENE,71,0.0,0.0,65,0.00,,OVC,0.00,WeatherDisplay:10.37,2013-03-30 01:58:00,
2013-03-29 22:03:00,63.9,51.9,30.21,ENE,72,0.0,0.0,65,0.00,,OVC,0.00,WeatherDisplay:10.37,2013-03-30 02:03:00,
2013-03-29 22:08:00,63.7,51.7,30.21,ENE,72,0.0,0.0,65,0.00,,OVC,0.00,WeatherDisplay:10.37,2013-03-30 02:08:00,
2013-03-29 22:13:00,63.9,51.9,30.21,ENE,72,0.0,0.0,65,0.00,,OVC,0.00,WeatherDisplay:10.37,2013-03-30 02:13:00,
2013-03-29 22:18:00,63.9,52.3,30.21,ENE,72,0.0,0.0,66,0.00,,OVC,0.00,WeatherDisplay:10.37,2013-03-30 02:18:00,
2013-03-29 22:23:00,63.7,52.1,30.21,ENE,74,0.0,0.0,66,0.00,,OVC,0.00,WeatherDisplay:10.37,2013-03-30 02:23:00,
2013-03-29 22:28:00,63.4,51.8,30.21,ENE,74,0.0,0.0,66,0.00,,OVC,0.00,WeatherDisplay:10.37,2013-03-30 02:28:00,
2013-03-29 22:33:00,63.2,51.6,30.21,ENE,74,0.0,0.0,66,0.00,,OVC,0.00,WeatherDisplay:10.37,2013-03-30 02:33:00,
2013-03-29 22:38:00,62.9,51.8,30.21,ENE,74,0.0,0.0,67,0.00,,OVC,0.00,WeatherDisplay:10.37,2013-03-30 02:38:00,
2013-03-29 22:43:00,62.7,51.6,30.21,ENE,74,0.0,0.0,67,0.00,,OVC,0.00,WeatherDisplay:10.37,2013-03-30 02:43:00,
2013-03-29 22:48:00,62.7,51.6,30.22,ENE,72,0.0,0.0,67,0.00,,OVC,0.00,WeatherDisplay:10.37,2013-03-30 02:48:00,
2013-03-29 22:53:00,62.6,51.5,30.22,ENE,72,0.0,0.0,67,0.00,,OVC,0.00,WeatherDisplay:10.37,2013-03-30 02:53:00,
2013-03-29 22:58:00,62.4,51.7,30.22,ENE,72,0.0,0.0,68,0.00,,OVC,0.00,WeatherDisplay:10.37,2013-03-30 02:58:00,
2013-03-29 23:03:00,62.1,51.4,30.22,ENE,72,0.0,0.0,68,0.00,,OVC,0.00,WeatherDisplay:10.37,2013-03-30 03:03:00,
2013-03-29 23:08:00,62.0,51.3,30.22,ENE,72,0.0,0.0,68,0.00,,OVC,0.00,WeatherDisplay:10.37,2013-03-30 03:08:00,
2013-03-29 23:13:00,61.8,51.5,30.22,ENE,73,0.0,0.0,69,0.00,,OVC,0.00,WeatherDisplay:10.37,2013-03-30 03:13:00,
2013-03-29 23:18:00,61.8,51.9,30.22,ENE,72,0.0,0.0,70,0.00,,OVC,0.00,WeatherDisplay:10.37,2013-03-30 03:18:00,
2013-03-29 23:23:00,61.6,51.3,30.22,ENE,72,0.0,0.0,69,0.00,,OVC,0.00,WeatherDisplay:10.37,2013-03-30 03:23:00,
2013-03-29 23:28:00,61.5,51.6,30.22,ENE,73,0.0,0.0,70,0.00,,OVC,0.00,WeatherDisplay:10.37,2013-03-30 03:28:00,
2013-03-29 23:33:00,61.3,51.8,30.21,ENE,73,0.0,0.0,71,0.00,,OVC,0.00,WeatherDisplay:10.37,2013-03-30 03:33:00,
2013-03-29 23:38:00,61.2,51.7,30.21,ENE,73,0.0,0.0,71,0.00,,OVC,0.00,WeatherDisplay:10.37,2013-03-30 03:38:00,
2013-03-29 23:43:00,61.0,51.5,30.21,ENE,72,0.0,0.0,71,0.00,,OVC,0.00,WeatherDisplay:10.37,2013-03-30 03:43:00,
2013-03-29 23:48:00,60.9,51.4,30.21,ENE,72,0.0,0.0,71,0.00,,OVC,0.00,WeatherDisplay:10.37,2013-03-30 03:48:00,
2013-03-29 23:53:00,60.7,51.2,30.21,ENE,72,0.0,0.0,71,0.00,,OVC,0.00,WeatherDisplay:10.37,2013-03-30 03:53:00,
2013-03-29 23:58:00,60.7,51.6,30.21,ENE,72,0.0,0.0,72,0.00,,OVC,0.00,WeatherDisplay:10.37,2013-03-30 03:58:00,